• In Denmark
  • List of Countries
  • For 7 days
  • Water Temperature
  • Satellite Maps
  • Weather Map
  • Weather Widgets
  • user-avatar
    Login

    Hourly Weather Serowe

    Today, 25 June, Monday

    Time Temperature Precipitation Wind Pressure Humidity
    00:00 +14°C° 0 mm 1 mps 669 mmHg 44%
    01:00 +14°C° 0 mm 1 mps 669 mmHg 45%
    02:00 +13°C° 0 mm 1 mps 669 mmHg 48%
    03:00 +13°C° 0 mm 1 mps 669 mmHg 49%
    04:00 +13°C° 0 mm 1 mps 669 mmHg 51%
    05:00 +12°C° 0 mm 1 mps 669 mmHg 52%
    06:00 +13°C° 0 mm 1 mps 670 mmHg 50%
    07:00 +14°C° 0 mm 1 mps 670 mmHg 49%
    08:00 +15°C° 0 mm 1 mps 671 mmHg 41%
    09:00 +17°C° 0 mm 2 mps 671 mmHg 36%
    10:00 +19°C° 0 mm 3 mps 672 mmHg 32%
    11:00 +21°C° 0 mm 4 mps 672 mmHg 28%
    12:00 +22°C° 0 mm 4 mps 671 mmHg 25%
    13:00 +23°C° 0 mm 4 mps 671 mmHg 23%
    14:00 +25°C° 0 mm 4 mps 670 mmHg 21%
    15:00 +23°C° 0 mm 4 mps 670 mmHg 22%
    16:00 +22°C° 0 mm 4 mps 670 mmHg 23%
    17:00 +22°C° 0 mm 3 mps 669 mmHg 25%
    18:00 +20°C° 0 mm 3 mps 669 mmHg 29%
    19:00 +18°C° 0 mm 3 mps 669 mmHg 33%
    20:00 +16°C° 0 mm 3 mps 669 mmHg 38%
    21:00 +14°C° 0 mm 3 mps 670 mmHg 40%
    22:00 +14°C° 0 mm 3 mps 670 mmHg 43%
    23:00 +13°C° 0 mm 3 mps 670 mmHg 45%

    Tomorrow, 26 June, Tuesday

    Time Temperature Precipitation Wind Pressure Humidity
    00:00 +13°C° 0 mm 3 mps 670 mmHg 48%
    01:00 +12°C° 0 mm 3 mps 670 mmHg 51%
    02:00 +12°C° 0 mm 3 mps 670 mmHg 54%
    03:00 +12°C° 0 mm 3 mps 670 mmHg 56%
    04:00 +11°C° 0 mm 3 mps 670 mmHg 59%
    05:00 +11°C° 0 mm 3 mps 670 mmHg 62%
    06:00 +11°C° 0 mm 3 mps 670 mmHg 61%
    07:00 +12°C° 0 mm 3 mps 670 mmHg 60%
    08:00 +12°C° 0 mm 4 mps 671 mmHg 60%
    09:00 +14°C° 0 mm 4 mps 671 mmHg 51%
    10:00 +17°C° 0 mm 5 mps 672 mmHg 43%
    11:00 +20°C° 0 mm 6 mps 672 mmHg 35%
    12:00 +21°C° 0 mm 5 mps 672 mmHg 32%
    13:00 +22°C° 0 mm 5 mps 671 mmHg 29%
    14:00 +23°C° 0 mm 5 mps 671 mmHg 26%
    15:00 +22°C° 0 mm 4 mps 671 mmHg 27%
    16:00 +22°C° 0 mm 4 mps 670 mmHg 28%
    17:00 +21°C° 0 mm 3 mps 670 mmHg 30%
    18:00 +20°C° 0 mm 4 mps 670 mmHg 35%
    19:00 +18°C° 0 mm 4 mps 670 mmHg 40%
    20:00 +15°C° 0 mm 4 mps 670 mmHg 45%
    21:00 +15°C° 0 mm 4 mps 670 mmHg 47%
    22:00 +14°C° 0 mm 3 mps 671 mmHg 50%
    23:00 +13°C° 0 mm 3 mps 671 mmHg 52%

    Day after tomorrow, 27 June, Wednesday

    Time Temperature Precipitation Wind Pressure Humidity
    00:00 +13°C° 0 mm 3 mps 671 mmHg 55%
    01:00 +12°C° 0 mm 3 mps 670 mmHg 58%
    02:00 +12°C° 0 mm 3 mps 670 mmHg 61%
    03:00 +11°C° 0 mm 3 mps 670 mmHg 63%
    04:00 +11°C° 0 mm 3 mps 670 mmHg 66%
    05:00 +10°C° 0 mm 3 mps 670 mmHg 68%
    06:00 +11°C° 0 mm 3 mps 670 mmHg 66%
    07:00 +11°C° 0 mm 3 mps 671 mmHg 63%
    08:00 +12°C° 0 mm 3 mps 671 mmHg 61%
    09:00 +14°C° 0 mm 3 mps 672 mmHg 52%
    10:00 +18°C° 0 mm 3 mps 672 mmHg 42%
    11:00 +20°C° 0 mm 3 mps 673 mmHg 33%
    12:00 +21°C° 0 mm 3 mps 672 mmHg 29%
    13:00 +24°C° 0 mm 2 mps 672 mmHg 25%
    14:00 +25°C° 0 mm 1 mps 672 mmHg 21%
    15:00 +24°C° 0 mm 2 mps 671 mmHg 22%
    16:00 +24°C° 0 mm 2 mps 671 mmHg 22%
    17:00 +23°C° 0 mm 2 mps 670 mmHg 22%
    18:00 +20°C° 0 mm 2 mps 670 mmHg 26%
    19:00 +19°C° 0 mm 2 mps 670 mmHg 29%
    20:00 +17°C° 0 mm 2 mps 670 mmHg 33%
    21:00 +16°C° 0 mm 2 mps 670 mmHg 35%
    22:00 +15°C° 0 mm 2 mps 670 mmHg 37%
    23:00 +15°C° 0 mm 2 mps 670 mmHg 39%

    28 June, Thursday

    Time Temperature Precipitation Wind Pressure Humidity
    00:00 +14°C° 0 mm 1 mps 670 mmHg 40%
    01:00 +14°C° 0 mm 1 mps 670 mmHg 42%
    02:00 +13°C° 0 mm 1 mps 669 mmHg 43%
    03:00 +13°C° 0 mm 1 mps 669 mmHg 43%
    04:00 +13°C° 0 mm 1 mps 669 mmHg 44%
    05:00 +13°C° 0 mm 1 mps 669 mmHg 44%
    06:00 +13°C° 0 mm 1 mps 670 mmHg 42%
    07:00 +13°C° 0 mm 0 mps 670 mmHg 40%
    08:00 +14°C° 0 mm 0 mps 671 mmHg 38%
    09:00 +19°C° 0 mm 1 mps 672 mmHg 32%
    10:00 +21°C° 0 mm 2 mps 672 mmHg 26%
    11:00 +24°C° 0 mm 3 mps 673 mmHg 21%
    12:00 +25°C° 0 mm 3 mps 672 mmHg 19%
    13:00 +26°C° 0 mm 3 mps 672 mmHg 17%
    14:00 +26°C° 0 mm 4 mps 671 mmHg 16%
    15:00 +26°C° 0 mm 3 mps 671 mmHg 17%
    16:00 +25°C° 0 mm 3 mps 671 mmHg 18%
    17:00 +24°C° 0 mm 3 mps 670 mmHg 18%
    18:00 +21°C° 0 mm 2 mps 670 mmHg 21%
    19:00 +19°C° 0 mm 2 mps 670 mmHg 25%
    20:00 +17°C° 0 mm 2 mps 670 mmHg 28%
    21:00 +17°C° 0 mm 2 mps 670 mmHg 29%
    22:00 +16°C° 0 mm 2 mps 670 mmHg 31%
    23:00 +15°C° 0 mm 2 mps 670 mmHg 33%

    29 June, Friday

    Time Temperature Precipitation Wind Pressure Humidity
    00:00 +15°C° 0 mm 1 mps 670 mmHg 34%
    01:00 +15°C° 0 mm 1 mps 669 mmHg 35%
    02:00 +14°C° 0 mm 1 mps 669 mmHg 36%
    03:00 +14°C° 0 mm 2 mps 669 mmHg 38%
    04:00 +13°C° 0 mm 2 mps 669 mmHg 40%
    05:00 +13°C° 0 mm 2 mps 669 mmHg 42%
    06:00 +12°C° 0 mm 3 mps 670 mmHg 46%
    07:00 +12°C° 0 mm 3 mps 670 mmHg 50%
    08:00 +12°C° 0 mm 3 mps 671 mmHg 54%
    09:00 +16°C° 0 mm 3 mps 671 mmHg 46%
    10:00 +18°C° 0 mm 3 mps 672 mmHg 39%
    11:00 +21°C° 0 mm 4 mps 672 mmHg 31%
    12:00 +22°C° 0 mm 3 mps 671 mmHg 28%
    13:00 +24°C° 0 mm 2 mps 671 mmHg 24%
    14:00 +25°C° 0 mm 2 mps 670 mmHg 21%
    15:00 +25°C° 0 mm 1 mps 670 mmHg 21%
    16:00 +24°C° 0 mm 1 mps 670 mmHg 22%
    17:00 +24°C° 0 mm 1 mps 670 mmHg 22%
    18:00 +22°C° 0 mm 1 mps 670 mmHg 27%
    19:00 +19°C° 0 mm 2 mps 670 mmHg 31%
    20:00 +17°C° 0 mm 2 mps 670 mmHg 35%
    21:00 +17°C° 0 mm 2 mps 669 mmHg 39%
    22:00 +16°C° 0 mm 2 mps 669 mmHg 42%
    23:00 +15°C° 0 mm 1 mps 669 mmHg 46%

    30 June, Saturday

    Time Temperature Precipitation Wind Pressure Humidity
    00:00 +15°C° 0 mm 1 mps 669 mmHg 49%
    01:00 +14°C° 0 mm 1 mps 669 mmHg 51%
    02:00 +14°C° 0 mm 1 mps 668 mmHg 54%
    03:00 +13°C° 0 mm 1 mps 668 mmHg 55%
    04:00 +13°C° 0 mm 1 mps 668 mmHg 56%
    05:00 +13°C° 0 mm 1 mps 668 mmHg 57%
    06:00 +13°C° 0 mm 1 mps 669 mmHg 54%
    07:00 +14°C° 0 mm 1 mps 669 mmHg 51%
    08:00 +15°C° 0 mm 1 mps 670 mmHg 48%
    09:00 +19°C° 0 mm 1 mps 671 mmHg 40%
    10:00 +22°C° 0 mm 1 mps 671 mmHg 31%
    11:00 +24°C° 0 mm 2 mps 672 mmHg 23%
    12:00 +25°C° 0 mm 2 mps 671 mmHg 20%
    13:00 +26°C° 0 mm 2 mps 671 mmHg 18%
    14:00 +27°C° 0 mm 3 mps 670 mmHg 16%
    15:00 +26°C° 0 mm 3 mps 670 mmHg 17%
    16:00 +26°C° 0 mm 3 mps 670 mmHg 17%
    17:00 +25°C° 0 mm 3 mps 670 mmHg 18%
    18:00 +22°C° 0 mm 3 mps 670 mmHg 22%
    19:00 +20°C° 0 mm 2 mps 670 mmHg 25%
    20:00 +18°C° 0 mm 2 mps 670 mmHg 28%
    21:00 +18°C° 0 mm 2 mps 670 mmHg 30%
    22:00 +17°C° 0 mm 2 mps 670 mmHg 32%
    23:00 +16°C° 0 mm 2 mps 670 mmHg 34%
    Show more